[[{"header":{"parameterUnit":"m.s-1","parameterCategory":1,"la1":30.2991,"la2":30.254,"lo1":-89.0895,"lo2":-89.0444,"dy":0.0017,"dx":0.0017,"nx":28,"ny":28,"refTime":"2023-10-03T03:00:00:Z","depth":0,"parameterNumber":2,"parameterNumberName":"U-component_of_WINDS"},"data":[0,0,0,0,0,0,0,0,0,0,0,0,0,0,0,0,0,0,0,0,0,0,0,0,0,0,0,0,0,0,0,0,0,0,0,0,0,0,0,0,0,0,0,0,0,0,0,0,0,0,0,0,0,0,0,0,0,0,-2.8099,-2.8099,0,-2.8134,-2.8134,-2.8135,-2.8014,-2.8011,-2.8007,-2.8004,-2.8045,-2.805,-2.8054,0,0,0,0,0,0,0,0,0,0,0,0,0,-2.7931,-2.7934,-2.8099,-2.8099,-2.8099,-2.8134,-2.8134,-2.8135,-2.8015,-2.801,-2.8006,-2.8002,-2.8044,-2.8049,-2.8054,0,0,0,0,0,0,0,0,0,0,0,0,0,-2.7989,-2.7935,-2.8098,-2.8044,-2.8039,-2.8134,-2.8134,-2.8135,-2.8016,-2.801,-2.8005,-2.8,-2.8042,-2.8048,-2.8055,-2.8206,0,0,-2.8076,-2.8079,0,0,0,0,0,0,0,0,-2.7986,-2.7995,-2.8051,-2.8048,-2.8043,-2.8064,-2.809,-2.8159,-2.8017,-2.8025,-2.8003,-2.7997,-2.8056,-2.8061,-2.808,-2.8208,-2.821,-2.8076,-2.808,-2.8083,-2.8085,0,0,0,0,0,0,0,-2.7982,-2.7993,-2.8113,-2.8052,-2.8047,-2.8018,-2.802,-2.8103,-2.8071,-2.8024,-2.8015,-2.8021,-2.8053,-2.8074,-2.808,-2.821,-2.8076,-2.8082,-2.8086,-2.8089,-2.8463,-2.8468,0,0,0,0,0,0,-2.7984,-2.799,-2.8111,-2.8114,-2.8,-2.8026,-2.8028,-2.8063,-2.807,-2.8065,-2.8025,-2.8015,-2.8065,-2.8073,-2.8081,-2.8259,-2.8083,-2.809,-2.8093,-2.8457,-2.8464,-2.8471,0,0,0,0,0,0,-2.7981,-2.7996,-2.811,-2.805,-2.8062,-2.8034,-2.8074,-2.8066,-2.8087,-2.8071,-2.8065,-2.8053,-2.8061,-2.8072,-2.8175,-2.8258,-2.8093,-2.8099,-2.845,-2.8459,-2.8467,-2.8615,0,0,0,0,0,0,-2.7977,-2.7996,-2.8052,-2.8052,-2.8065,-2.8203,-2.8079,-2.8071,-2.8099,-2.8085,-2.8095,-2.8091,-2.8058,-2.8166,-2.8182,-2.8265,-2.8104,-2.8443,-2.8454,-2.8465,-2.8602,-2.8628,-2.8649,0,0,0,0,0,-2.7971,-2.8094,-2.8056,-2.8071,-2.8135,-2.8208,-2.8216,-2.8174,-2.8106,-2.8163,-2.8152,-2.8091,-2.8246,-2.8178,-2.8195,-2.8281,-2.8437,-2.8451,-2.8464,-2.8592,-2.8623,-2.8648,0,0,0,0,0,0,-2.8108,-2.8093,-2.8051,-2.8176,-2.8194,-2.8188,-2.8259,-2.8208,-2.8247,-2.8233,-2.818,-2.8183,-2.8296,-2.8298,-2.8222,-2.8426,-2.833,-2.8347,-2.8422,-2.8451,-2.8474,-2.8472,-2.811,0,0,0,0,0,-2.8152,-2.8211,-2.8195,-2.8307,-2.8318,-2.8287,-2.8317,-2.8282,-2.8299,-2.8307,-2.8304,-2.8324,-2.8377,-2.8413,-2.8461,-2.8601,-2.8602,-2.8668,-2.8691,-2.8711,-2.8727,-2.8802,-2.8831,-2.8514,-2.8514,-2.8514,0,0,-2.8245,-2.8244,-2.8285,-2.8335,-2.8344,-2.8408,-2.8294,-2.8367,-2.8414,-2.8318,-2.8416,-2.8414,-2.8433,-2.8555,-2.8609,-2.856,-2.8814,-2.8728,-2.8743,-2.8749,-2.8818,-2.8848,-2.8875,-2.8523,-2.8521,-2.852,0,0,-2.8447,-2.8452,-2.8546,-2.8557,-2.8572,-2.855,-2.8573,-2.8573,-2.8568,-2.8664,-2.8594,-2.8649,-2.8741,-2.8758,-2.8778,-2.8984,-2.893,-2.9001,-2.9124,-2.9197,-2.9222,-2.9244,-2.9319,-2.9346,-2.9017,-2.9017,-2.9017,0,-2.8562,-2.8653,-2.8601,-2.8678,-2.8702,-2.8616,-2.8711,-2.8725,-2.8756,-2.8776,-2.872,-2.8833,-2.884,-2.8965,-2.9015,-2.9033,-2.9059,-2.9001,-2.9222,-2.9244,-2.9263,-2.9334,-2.9362,-2.9026,-2.9025,-2.9024,-2.9023,0,-2.8794,-2.8858,-2.8932,-2.8962,-2.8994,-2.908,-2.9042,-2.9081,-2.9043,-2.9027,-2.9126,-2.913,-2.9177,-2.9204,-2.9168,-2.9324,-2.9293,-2.9231,-2.9133,-2.9303,-2.9369,-2.9396,-2.9038,-2.9035,-2.9032,-2.903,0,0,-2.9087,-2.9084,-2.9113,-2.9125,-2.9134,-2.9183,-2.9264,-2.9308,-2.9344,-2.9367,-2.9435,-2.9514,-2.9455,-2.9478,-2.9443,-2.9507,-2.9671,-2.9436,-2.9436,-2.9482,-2.9844,-2.9893,-2.9925,-2.9633,-2.9638,-2.9642,-2.9843,0,-2.9287,-2.9425,-2.938,-2.9521,-2.958,-2.9497,-2.9568,-2.9582,-2.9568,-2.9617,-2.9602,-2.966,-2.9577,-2.9591,-2.965,-2.9639,-2.9743,-2.9623,-2.9699,-2.9702,-2.9699,-2.9959,-3.0012,-3.0202,-2.9868,-2.9873,-2.9876,0,-2.954,-2.9571,-2.9718,-2.9715,-2.9738,-2.9803,-2.9839,-2.9886,-2.99,-2.9885,-2.991,-2.9861,-2.9941,-2.9841,-2.9952,-2.9871,-2.9899,-2.9898,-2.9904,-2.9912,-2.9802,-2.9977,-3.0261,-3.0291,-2.9915,-2.9912,-2.9909,0,-2.9742,-2.982,-2.9917,-2.993,-2.9929,-2.9977,-2.9979,-2.9986,-3.0015,-3.0047,-3.0065,-3.0107,-3.013,-3.0164,-3.0127,-3.0057,-3.0244,-3.0141,-3.0237,-3.0238,-3.0283,-3.0281,-3.0579,-3.0296,-3.0296,-3.0295,-3.0295,0,-2.9972,-3.0065,-3.0008,-3.0069,-3.017,-3.0116,-3.0219,-3.0212,-3.0219,-3.0278,-3.0208,-3.0265,-3.0211,-3.0263,-3.0235,-3.0332,-3.0343,-3.0335,-3.0327,-3.0343,-3.0344,-3.0363,-3.035,-3.0303,-3.0301,-3.03,-3.0299,0,-3.0216,-3.0181,-3.0282,-3.0271,-3.0271,-3.0347,-3.0338,-3.0394,-3.0374,-3.0449,-3.0463,-3.0433,-3.049,-3.0456,-3.0515,-3.0496,-3.0623,-3.0595,-3.0618,-3.0612,-3.0711,-3.0703,-3.1033,-3.1074,-3.0763,-3.0766,-3.0768,0,-3.0367,-3.0436,-3.0432,-3.0465,-3.0471,-3.0526,-3.0554,-3.0503,-3.0535,-3.0554,-3.0609,-3.0659,-3.0697,-3.0793,-3.0777,-3.0822,-3.0797,-3.0909,-3.0803,-3.0817,-3.0801,-3.0799,-3.0806,-3.0932,-3.0935,-3.0938,-3.0941,0,-3.0639,-3.0617,-3.066,-3.0696,-3.0731,-3.0758,-3.0779,-3.0811,-3.0759,-3.0799,-3.0856,-3.0885,-3.0943,-3.0996,-3.1033,-3.1036,-3.0982,-3.0973,-3.0998,-3.1017,-3.1028,-3.1025,-3.0679,-3.0967,-3.0964,-3.0962,-3.0961,-3.096,-3.0843,-3.09,-3.0906,-3.0956,-3.0965,-3.0986,-3.1038,-3.1023,-3.1068,-3.1111,-3.1077,-3.1145,-3.1156,-3.1199,-3.1209,-3.1262,-3.1217,-3.1253,-3.1263,-3.1273,-3.1288,-3.1017,-3.1269,-3.1268,-3.1267,-3.1266,-3.1266,0,-3.1113,-3.1111,-3.1157,-3.1187,-3.1227,-3.1167,-3.1187,-3.1224,-3.1284,-3.1297,-3.1335,-3.14,-3.1449,-3.1436,-3.148,-3.1525,-3.1501,-3.1539,-3.1537,-3.1539,-3.1324,-3.1299,-3.1558,-3.1558,-3.1557,-3.1557,-3.1557,-3.1557,-3.1258,-3.1353,-3.1332,-3.143,-3.1428,-3.1492,-3.1509,-3.1528,-3.1538,-3.1613,-3.1653,-3.1642,-3.1645,-3.1689,-3.1732,-3.1726,-3.1747,-3.1795,-3.1781,-3.1582,-3.1554,-3.1526,-3.1503,-3.1799,-3.18,-3.1991,-3.1993,-3.1994]},{"header":{"parameterUnit":"m.s-1","parameterCategory":1,"la1":30.2991,"la2":30.254,"lo1":-89.0895,"lo2":-89.0444,"dy":0.0017,"dx":0.0017,"nx":28,"ny":28,"refTime":"2023-10-03T03:00:00:Z","depth":0,"parameterNumber":3,"parameterNumberName":"V-component_of_WINDS"},"data":[0,0,0,0,0,0,0,0,0,0,0,0,0,0,0,0,0,0,0,0,0,0,0,0,0,0,0,0,0,0,0,0,0,0,0,0,0,0,0,0,0,0,0,0,0,0,0,0,0,0,0,0,0,0,0,0,0,0,-2.5025,-2.5025,0,-2.5016,-2.5016,-2.5016,-2.4982,-2.4981,-2.498,-2.4979,-2.4969,-2.4969,-2.497,0,0,0,0,0,0,0,0,0,0,0,0,0,-2.5011,-2.5011,-2.5025,-2.5025,-2.5025,-2.5016,-2.5016,-2.5016,-2.4982,-2.4981,-2.498,-2.4979,-2.4969,-2.4969,-2.497,0,0,0,0,0,0,0,0,0,0,0,0,0,-2.5011,-2.5011,-2.5025,-2.5007,-2.5005,-2.5016,-2.5016,-2.5016,-2.4982,-2.4981,-2.498,-2.4979,-2.4969,-2.4969,-2.497,-2.4997,0,0,-2.4972,-2.4972,0,0,0,0,0,0,0,0,-2.5011,-2.5011,-2.501,-2.5008,-2.5006,-2.4999,-2.5007,-2.501,-2.4982,-2.4991,-2.4979,-2.4978,-2.498,-2.4979,-2.498,-2.4997,-2.4996,-2.4972,-2.4972,-2.4973,-2.4973,0,0,0,0,0,0,0,-2.5011,-2.5012,-2.5022,-2.501,-2.5008,-2.4998,-2.4997,-2.5007,-2.4992,-2.499,-2.4988,-2.4987,-2.4979,-2.498,-2.498,-2.4996,-2.4972,-2.4973,-2.4973,-2.4973,-2.5032,-2.5033,0,0,0,0,0,0,-2.5014,-2.5012,-2.5022,-2.5021,-2.5006,-2.5,-2.4998,-2.5002,-2.4992,-2.4989,-2.4988,-2.4985,-2.4979,-2.4979,-2.4979,-2.5009,-2.4973,-2.4973,-2.4974,-2.5031,-2.5032,-2.5033,0,0,0,0,0,0,-2.5014,-2.5015,-2.5022,-2.5016,-2.5016,-2.5001,-2.5006,-2.5003,-2.5004,-2.499,-2.4987,-2.4992,-2.4978,-2.4978,-2.4992,-2.5008,-2.4974,-2.4974,-2.5029,-2.5031,-2.5033,-2.5069,0,0,0,0,0,0,-2.5013,-2.5015,-2.5026,-2.5016,-2.5017,-2.5037,-2.5007,-2.5004,-2.5005,-2.5002,-2.4993,-2.4991,-2.4977,-2.4992,-2.4993,-2.5008,-2.4975,-2.5028,-2.503,-2.5032,-2.5066,-2.5072,-2.5077,0,0,0,0,0,-2.5013,-2.5037,-2.5027,-2.5028,-2.503,-2.5038,-2.5038,-2.5022,-2.5007,-2.5017,-2.5008,-2.4991,-2.5006,-2.4993,-2.4995,-2.501,-2.5027,-2.5029,-2.5032,-2.5064,-2.5071,-2.5076,0,0,0,0,0,0,-2.5049,-2.5035,-2.5024,-2.5046,-2.5043,-2.5032,-2.5044,-2.503,-2.5031,-2.5028,-2.5008,-2.5007,-2.5023,-2.5018,-2.5004,-2.5035,-2.5013,-2.5016,-2.5037,-2.5044,-2.5049,-2.5049,-2.4975,0,0,0,0,0,-2.506,-2.5067,-2.5055,-2.5075,-2.5074,-2.506,-2.5063,-2.5051,-2.5047,-2.5045,-2.5037,-2.5034,-2.5037,-2.504,-2.5043,-2.5066,-2.5062,-2.5077,-2.5082,-2.5086,-2.5089,-2.5098,-2.5104,-2.5042,-2.5042,-2.5042,0,0,-2.5081,-2.5075,-2.5081,-2.5082,-2.5079,-2.5086,-2.5059,-2.5069,-2.5074,-2.5047,-2.5059,-2.5053,-2.5048,-2.5066,-2.5073,-2.5062,-2.5105,-2.5089,-2.5093,-2.5093,-2.5101,-2.5107,-2.5112,-2.5044,-2.5043,-2.5043,0,0,-2.5124,-2.5121,-2.5137,-2.5133,-2.5128,-2.5118,-2.5122,-2.5112,-2.5107,-2.512,-2.5099,-2.5104,-2.5112,-2.5108,-2.5107,-2.5147,-2.5131,-2.5148,-2.5174,-2.5184,-2.5189,-2.5193,-2.5205,-2.521,-2.5151,-2.5151,-2.5151,0,-2.5152,-2.5163,-2.5146,-2.5157,-2.5157,-2.5133,-2.5148,-2.5145,-2.5141,-2.5142,-2.5129,-2.5137,-2.5132,-2.5147,-2.5157,-2.5158,-2.516,-2.5149,-2.5189,-2.5193,-2.5197,-2.5209,-2.5214,-2.5153,-2.5153,-2.5153,-2.5153,0,-2.5196,-2.5204,-2.5217,-2.5213,-2.5215,-2.5228,-2.5212,-2.5216,-2.5204,-2.5194,-2.5206,-2.5199,-2.5199,-2.5202,-2.519,-2.5215,-2.5208,-2.5193,-2.5171,-2.5205,-2.5216,-2.522,-2.5156,-2.5156,-2.5155,-2.5154,0,0,-2.5262,-2.5248,-2.5253,-2.525,-2.5242,-2.5247,-2.5258,-2.5258,-2.5261,-2.5259,-2.5266,-2.5272,-2.5257,-2.5256,-2.5244,-2.5252,-2.5282,-2.5236,-2.5235,-2.5243,-2.5307,-2.5317,-2.5323,-2.5271,-2.5272,-2.5273,-2.5307,0,-2.5302,-2.532,-2.5304,-2.5325,-2.5331,-2.5307,-2.5316,-2.5311,-2.5303,-2.5306,-2.5296,-2.53,-2.5281,-2.528,-2.5287,-2.5277,-2.5294,-2.5274,-2.5277,-2.5277,-2.5278,-2.5329,-2.534,-2.5373,-2.5311,-2.5312,-2.5312,0,-2.5351,-2.535,-2.5371,-2.536,-2.5362,-2.537,-2.5368,-2.5372,-2.5365,-2.5358,-2.5356,-2.5341,-2.5349,-2.5328,-2.5338,-2.5325,-2.5325,-2.5319,-2.532,-2.5319,-2.5296,-2.5327,-2.5383,-2.5387,-2.5319,-2.5318,-2.5318,0,-2.5395,-2.5399,-2.5412,-2.541,-2.5398,-2.5404,-2.5399,-2.5391,-2.5392,-2.539,-2.5389,-2.5388,-2.5387,-2.5386,-2.537,-2.5357,-2.5382,-2.536,-2.5375,-2.5375,-2.538,-2.538,-2.5435,-2.5382,-2.5382,-2.5382,-2.5382,0,-2.544,-2.5453,-2.5431,-2.5439,-2.5452,-2.5434,-2.5447,-2.544,-2.5433,-2.5438,-2.5418,-2.5422,-2.5402,-2.5404,-2.5391,-2.54,-2.54,-2.5394,-2.539,-2.5395,-2.5396,-2.5394,-2.5391,-2.5384,-2.5383,-2.5383,-2.5383,0,-2.5491,-2.5477,-2.5489,-2.5476,-2.5473,-2.5483,-2.5471,-2.5477,-2.5467,-2.5473,-2.5473,-2.5456,-2.5458,-2.5442,-2.544,-2.5432,-2.5446,-2.5439,-2.5448,-2.5445,-2.546,-2.5459,-2.5515,-2.5521,-2.5466,-2.5467,-2.5467,0,-2.5521,-2.553,-2.5518,-2.5519,-2.5515,-2.5519,-2.5519,-2.55,-2.5501,-2.5493,-2.55,-2.5499,-2.5498,-2.5501,-2.5488,-2.5486,-2.5478,-2.5498,-2.5477,-2.5481,-2.5476,-2.5475,-2.5475,-2.5502,-2.5502,-2.5503,-2.5503,0,-2.5573,-2.5565,-2.5566,-2.5565,-2.5565,-2.5563,-2.5559,-2.5561,-2.5541,-2.5543,-2.5544,-2.5542,-2.554,-2.5539,-2.5535,-2.5528,-2.5512,-2.551,-2.5513,-2.5517,-2.5522,-2.5518,-2.5458,-2.5509,-2.5508,-2.5508,-2.5507,-2.5507,-2.5613,-2.562,-2.5612,-2.5613,-2.5608,-2.5604,-2.5609,-2.5598,-2.5599,-2.5596,-2.5585,-2.5587,-2.5578,-2.557,-2.5565,-2.5566,-2.5556,-2.5561,-2.5562,-2.5563,-2.5565,-2.5523,-2.5566,-2.5565,-2.5565,-2.5565,-2.5565,0,-2.5664,-2.5657,-2.5658,-2.5653,-2.5654,-2.5639,-2.5633,-2.5634,-2.5637,-2.563,-2.5629,-2.5629,-2.5628,-2.5615,-2.5611,-2.5614,-2.5607,-2.5614,-2.5613,-2.5611,-2.5575,-2.5572,-2.562,-2.562,-2.562,-2.562,-2.562,-2.562,-2.569,-2.57,-2.569,-2.5697,-2.569,-2.5692,-2.569,-2.5686,-2.568,-2.5681,-2.568,-2.5672,-2.5662,-2.5658,-2.5655,-2.5651,-2.565,-2.566,-2.5653,-2.562,-2.5614,-2.5609,-2.5606,-2.566,-2.566,-2.5689,-2.5689,-2.5689]}]]